sat.trackr.live / text

‹ back to catalog

STARLINK-2404

NORAD 48093 · 2021-027B

PAYLOAD ACTIVE UNKNOWN

§ Identity

Operator
Country
US
Launch date
2021-04-07
Launch site
AFETR
Launch vehicle
Mass (kg)
RCS (m²)

Purposes: comms

External: N2YO · Heavens-Above · Gunter

§ Orbital elements

Epoch: 2026-05-24T10:27:54.484128Z

Period
94.01 min
Inclination
53.1605°
Eccentricity
0.0001298
Mean motion
15.31670799 rev/d
Perigee alt
469.9 km
Apogee alt
471.7 km
Semi-major
6,849.0 km
B*
-7.2463e-5
RAAN
162.6290°
Arg perigee
113.9592°
Mean anomaly
246.1545°
Rev number
28,426

§ Raw data

STARLINK-24041 48093U 21027B   26144.43604727 -.00002611  00000+0 -72463-4 0  99932 48093  53.1605 162.6290 0001298 113.9592 246.1545 15.31670799284269

JSON: /api/v1/satellites/48093 · /tle

For live sub-satellite position, see the globe view (requires WebGL).

§ Visibility from observer

Set your observer location to see the next 7 days of passes ≥ 10°. The values pass through the URL so the page stays shareable.

No JS? Fill the form by hand. The geolocation button needs JavaScript.